GFSGBSN_con_lsi_132.txt.gz
Lid_Strength_Index
4 4 4 4 4 4 4 3 4 4 4 4 4 4 3 3 4 3 4 4 4 4 4 4 4 4 5 9 9 4 1 2 1 3 5 8 11 12 14 12 11 12 11 9 8 8 9
4 4 5 5 4 4 4 4 4 4 4 4 4 4 4 4 3 3 3 4 4 4 4 4 4 4 8 12 5 5 4 4 2 4 5 9 10 10 12 12 11 10 9 9 9 9 8
4 5 5 5 5 5 5 6 6 5 5 5 5 4 4 4 4 3 3 3 3 3 4 4 4 5 8 11 5 5 6 6 5 3 7 7 7 10 10 13 10 9 12 10 9 9 8
5 5 6 6 6 6 6 6 6 6 6 5 5 5 5 5 4 4 3 3 3 3 3 3 4 6 10 6 5 6 5 6 5 5 4 5 6 9 11 10 11 12 13 13 10 9 8
5 6 6 6 6 7 7 6 6 6 6 6 5 5 4 5 4 4 3 3 2 2 2 2 6 7 11 5 7 5 6 7 6 4 4 4 7 10 10 13 15 14 16 15 12 10 8
6 6 6 6 6 6 6 6 6 6 6 6 5 5 4 4 3 2 2 2 2 2 3 3 5 9 8 9 6 5 5 6 6 4 6 7 11 13 13 15 18 17 16 15 14 11 9
6 6 6 6 6 6 6 5 5 5 5 5 5 4 4 3 2 1 2 4 7 8 4 6 7 8 7 5 5 5 4 6 6 6 10 9 12 15 14 13 12 12 13 13 12 10 10
7 7 6 6 6 6 5 5 5 5 5 5 4 4 3 1 0 -0 2 6 5 4 8 4 4 4 4 3 7 5 3 8 8 11 9 10 13 10 10 11 12 12 13 14 11 9 9
7 7 7 6 6 5 5 5 5 5 4 3 3 2 1 -0 -0 1 4 4 1 1 8 7 5 6 5 4 7 7 5 6 8 10 10 11 10 8 10 11 12 12 13 13 12 10 9
7 7 7 6 6 5 5 5 4 4 3 3 2 0 -0 -0 2 4 5 3 2 1 12 10 8 6 5 5 8 3 4 6 7 10 9 9 9 9 11 12 11 14 10 10 10 13 17
7 7 7 6 6 5 5 5 4 4 3 2 1 -0 0 1 3 5 4 2 2 3 20 8 8 3 5 7 6 8 4 6 9 9 10 12 10 11 12 11 10 12 9 10 10 12 14
7 7 7 6 5 5 5 5 4 3 2 1 -0 0 1 2 3 3 2 2 3 14 19 10 8 9 9 8 7 6 6 5 5 9 9 9 7 9 10 8 9 8 10 11 11 11 17
7 7 6 5 5 5 5 4 3 3 1 0 0 1 2 2 5 2 4 6 14 18 9 11 10 9 10 11 9 9 9 11 12 14 14 11 10 8 8 10 9 10 13 17 18 18 18
7 6 6 6 5 5 4 4 3 2 1 0 2 2 3 3 3 2 5 11 18 12 11 9 10 10 13 11 10 11 10 12 9 11 13 14 15 10 8 10 11 11 13 17 20 20 16
7 6 6 6 5 5 4 4 3 2 1 1 2 5 5 2 1 2 7 15 15 11 10 11 11 13 13 11 11 11 12 11 10 9 13 13 13 7 7 8 9 12 14 12 15 14 15
7 6 6 5 5 4 4 3 2 1 0 1 4 6 5 1 1 4 10 13 12 9 10 10 14 13 15 13 13 12 13 10 9 8 9 11 14 9 8 7 8 11 11 14 15 20 20
7 6 6 5 5 4 3 3 2 0 1 1 7 8 4 2 2 7 13 12 10 8 8 11 13 14 13 14 13 13 12 10 8 9 9 11 12 11 9 10 12 13 13 13 13 15 20
7 6 5 5 4 4 3 2 2 1 1 2 6 10 3 3 9 10 12 10 8 9 8 9 9 11 13 12 13 13 13 10 7 8 10 10 12 15 12 9 8 10 12 12 16 18 17
7 6 5 5 4 4 3 2 1 0 1 3 7 8 4 4 12 12 9 10 9 9 10 10 11 10 10 13 15 12 11 8 7 8 10 10 14 16 14 11 10 12 11 12 11 13 17
7 6 5 5 4 4 3 2 1 1 1 4 6 10 9 8 7 10 11 11 11 8 9 9 10 9 11 13 11 13 12 8 7 7 6 7 12 14 16 13 12 12 11 10 12 16 16
6 6 5 4 4 3 2 2 0 1 1 5 7 11 8 12 11 10 10 11 12 12 8 8 10 10 12 14 13 13 11 10 8 7 8 9 15 13 12 11 11 11 11 10 11 12 15
6 6 5 4 4 3 2 1 0 0 1 6 8 9 8 9 10 11 10 11 12 11 10 11 12 10 10 13 12 14 12 12 11 9 10 10 15 13 15 12 11 13 12 12 12 12 12
6 5 5 4 3 3 2 1 0 0 2 7 5 5 8 10 11 11 12 11 11 9 9 8 9 10 11 10 8 10 9 9 9 11 11 12 13 15 17 13 13 16 13 13 12 11 12
6 5 5 4 3 3 2 1 0 0 1 4 5 6 8 12 11 11 9 9 10 9 11 8 8 10 8 6 7 8 8 9 9 9 9 12 13 14 17 15 20 13 10 10 11 10 10
6 5 5 4 3 3 2 1 0 0 0 3 6 6 8 11 10 10 9 9 9 8 9 9 8 7 7 9 11 13 13 12 11 10 10 10 12 16 18 18 15 12 10 11 11 12 9
6 5 5 4 3 3 2 1 0 0 0 3 5 5 7 10 10 8 9 8 10 10 10 8 7 5 7 10 12 16 18 15 15 13 9 10 10 14 16 19 20 13 9 7 8 15 8
6 6 5 5 4 3 2 1 0 0 0 1 5 6 5 9 8 8 9 9 7 8 10 9 9 8 7 12 14 16 16 12 16 16 15 14 14 16 16 17 15 9 8 7 15 14 8
6 6 5 4 4 3 2 1 0 0 -0 1 4 3 5 7 7 6 6 7 7 8 11 9 10 10 10 13 14 14 15 13 14 12 14 15 16 16 15 17 19 8 8 12 10 8 7
6 5 5 4 4 3 2 1 1 0 0 0 6 4 4 6 7 6 5 5 4 5 8 8 9 10 9 12 11 11 13 12 13 17 10 15 12 14 14 14 9 7 8 7 7 8 8

GFSGBSN_con_lsi_135.txt.gz
Lid_Strength_Index
4 4 4 5 5 5 5 6 6 6 6 6 5 5 5 4 4 4 4 4 4 4 4 4 4 4 6 10 11 6 2 4 2 4 5 10 12 13 14 14 13 13 12 10 9 8 10
5 5 5 5 6 6 6 6 6 6 6 6 6 5 5 5 5 4 4 4 3 3 3 4 4 4 8 13 6 5 6 6 4 5 6 9 11 11 13 14 12 12 11 10 10 10 9
5 5 5 6 6 6 7 6 6 6 6 6 6 5 5 5 5 5 4 4 4 3 3 3 3 5 9 12 6 5 6 7 6 5 6 6 9 10 11 14 12 11 14 12 10 11 11
5 5 6 6 6 6 6 6 5 5 5 5 5 5 5 5 5 4 4 3 3 3 3 2 2 5 11 6 6 7 6 7 6 6 6 5 7 11 13 12 12 13 14 16 13 11 10
6 6 6 6 6 6 6 6 6 5 5 5 5 4 5 5 4 3 3 2 2 2 2 2 5 6 11 5 7 5 6 8 7 6 5 4 8 11 12 14 16 16 18 17 14 11 10
6 6 6 6 6 6 6 6 5 5 5 5 4 4 4 3 3 2 1 0 1 1 2 1 3 7 7 9 6 5 5 6 8 7 7 8 11 14 15 16 19 18 17 16 15 12 10
7 6 7 6 7 6 6 5 5 5 5 5 4 3 3 2 1 1 2 4 8 8 5 7 6 7 6 4 3 4 3 6 8 8 11 9 13 17 15 15 14 14 15 15 14 11 10
7 7 7 7 6 6 5 5 5 5 5 4 3 3 1 0 0 1 2 6 6 4 8 4 5 5 3 3 6 5 2 7 10 12 10 12 14 13 12 12 13 14 16 15 13 11 10
7 7 7 7 6 6 5 5 4 4 4 3 2 1 0 0 0 4 5 5 2 2 8 7 5 6 5 4 7 7 4 6 10 11 11 13 12 10 11 13 14 14 15 15 13 10 10
7 7 7 6 5 5 5 5 4 4 3 2 1 0 0 0 3 5 6 4 4 2 12 10 8 6 5 5 8 4 4 6 8 11 10 12 9 10 11 13 13 15 12 12 11 13 16
7 7 6 6 5 5 5 4 4 3 2 2 1 0 1 1 4 5 5 4 2 4 20 8 8 3 5 8 7 7 3 7 10 10 10 12 11 10 12 12 11 14 11 11 11 13 14
7 7 6 5 5 5 5 4 4 3 2 1 1 1 1 3 3 3 3 3 5 13 19 11 8 9 9 8 8 6 6 5 6 8 8 9 7 8 9 9 10 10 11 12 12 13 18
7 7 6 5 5 5 4 4 3 3 2 1 1 1 2 3 5 2 4 7 14 18 10 12 11 9 10 11 10 9 10 11 13 14 13 10 9 9 8 11 10 10 14 19 19 19 19
7 7 6 5 5 4 4 4 3 2 1 0 1 2 4 3 2 2 4 10 17 13 13 10 10 10 13 11 11 10 12 13 10 11 12 14 15 10 9 11 14 13 14 19 21 20 18
7 6 5 5 5 4 4 4 3 2 1 1 2 6 6 4 1 2 7 15 16 14 12 12 11 14 14 11 11 11 12 13 11 9 13 14 14 9 9 10 10 13 15 13 15 15 17
7 6 6 5 5 4 4 3 2 1 1 1 4 8 7 2 2 4 11 14 13 10 11 11 15 13 15 14 13 13 13 10 11 8 9 11 15 10 9 8 9 11 10 15 16 20 21
7 6 6 5 5 4 4 3 2 1 1 1 8 9 5 3 3 7 13 12 11 9 9 11 13 14 13 14 13 14 13 10 9 9 9 11 12 11 9 11 13 14 14 13 13 15 19
7 6 6 5 4 4 3 3 2 1 1 2 5 12 6 4 9 9 12 10 10 10 8 9 10 11 13 12 13 14 13 11 7 8 12 11 13 16 13 10 9 12 13 12 16 17 17
7 6 5 5 5 4 3 3 2 1 1 4 7 9 6 6 12 12 10 10 9 10 10 12 12 10 10 12 14 12 11 8 7 8 11 11 15 16 14 12 11 12 12 11 12 14 17
6 6 5 5 4 4 3 3 2 1 1 5 9 12 10 9 8 11 12 11 11 9 9 9 10 10 11 12 11 13 12 9 8 8 6 7 13 14 16 14 11 13 12 11 12 16 16
6 6 5 4 4 4 3 2 2 1 1 6 9 11 8 12 11 10 10 11 12 12 9 8 10 11 12 14 13 14 12 10 8 8 9 10 14 14 13 12 12 12 11 11 12 12 14
6 6 5 5 4 3 3 3 2 1 1 7 10 10 8 10 10 11 11 11 11 11 10 11 12 10 10 13 12 14 12 12 12 9 11 10 15 14 14 12 12 14 13 12 12 12 13
6 6 5 5 4 4 3 2 2 1 2 7 6 5 8 9 11 12 12 11 11 9 9 9 9 10 11 10 9 8 9 10 10 12 12 12 13 15 18 13 13 16 13 13 13 12 12
6 6 5 5 4 4 3 2 2 1 1 4 6 6 9 12 11 11 10 9 10 10 11 9 8 10 8 6 8 8 8 9 9 10 9 12 13 15 17 15 20 13 10 10 12 11 11
7 6 6 6 5 4 3 3 2 1 1 3 4 6 8 11 10 10 10 9 9 8 10 9 8 6 5 7 12 13 13 13 11 10 10 10 12 16 18 18 15 12 11 12 13 13 10
7 6 6 6 5 4 3 3 2 1 0 2 6 7 8 10 10 9 10 9 10 10 10 10 7 5 6 10 12 16 18 16 16 13 9 10 10 14 16 19 21 13 9 8 9 15 9
7 6 6 6 5 4 4 3 2 1 0 2 4 4 7 9 8 9 11 10 8 9 10 10 9 9 7 11 14 16 16 12 16 16 15 14 14 16 16 17 15 10 8 7 15 14 8
7 7 6 5 5 4 4 3 2 1 0 1 4 4 5 8 8 7 7 9 9 9 11 9 11 10 11 13 14 14 14 13 14 12 14 15 16 17 15 17 19 8 9 13 10 9 8
7 6 6 5 5 4 4 3 2 1 0 0 6 5 4 6 8 6 5 5 6 6 9 9 9 10 9 11 11 11 14 12 13 17 10 15 13 14 14 14 9 8 10 9 9 9 9

GFSGBSN_con_lsi_138.txt.gz
Lid_Strength_Index
5 5 5 5 6 6 6 6 6 6 6 6 6 6 6 6 5 5 5 5 4 4 3 3 3 4 7 10 11 6 3 4 3 4 6 9 12 14 15 13 13 13 13 11 10 9 10
5 5 6 6 6 6 6 6 6 5 5 6 6 6 5 5 5 5 5 5 4 4 4 4 3 3 7 14 7 6 6 7 6 5 6 9 12 12 14 14 13 12 12 11 10 10 10
5 5 6 6 6 6 6 6 6 5 5 4 4 4 4 4 4 5 4 4 4 4 4 3 3 4 8 10 6 6 7 8 7 5 7 6 10 11 12 14 13 13 15 13 11 11 11
6 6 6 6 6 6 6 6 5 5 4 4 4 4 4 4 4 3 3 3 3 2 2 2 2 4 10 6 5 7 6 8 6 6 7 7 7 11 13 13 13 14 15 18 14 12 11
6 6 6 6 7 6 6 6 5 5 5 4 5 4 4 3 3 2 1 1 1 0 0 0 3 4 10 4 7 6 6 9 7 7 7 6 9 12 12 15 17 17 19 18 16 12 12
6 7 6 6 6 6 6 5 5 5 5 5 5 4 3 2 1 0 0 0 1 1 2 2 2 6 6 7 5 5 5 6 8 8 9 9 11 15 17 17 20 20 18 18 16 13 13
7 7 6 6 6 6 5 5 5 5 5 5 4 3 2 0 -0 0 1 4 9 10 5 7 6 6 5 3 2 3 2 6 7 8 13 10 15 17 16 15 15 16 16 16 15 12 13
7 7 6 6 6 5 5 5 5 5 5 4 3 2 0 -0 0 0 2 6 7 4 8 5 5 5 3 3 6 4 2 7 9 12 10 12 14 13 13 13 13 15 16 16 15 13 13
7 7 7 6 6 5 5 5 4 4 4 3 2 1 0 -0 0 3 6 6 4 3 8 7 5 6 5 4 7 7 4 6 9 11 11 13 12 12 13 14 14 16 16 16 15 12 11
7 7 6 6 5 5 5 5 4 4 3 2 1 0 0 1 4 6 7 4 3 3 12 10 8 6 5 5 8 4 3 6 8 11 10 10 10 12 14 15 13 16 13 13 11 13 16
7 7 6 5 5 5 5 5 4 3 2 2 1 0 1 1 4 6 4 5 4 5 20 9 8 3 4 8 7 7 3 5 10 10 10 12 12 13 15 14 12 15 12 13 12 13 14
7 7 6 5 5 5 5 5 4 3 2 1 1 1 1 3 4 3 3 4 6 14 19 12 8 9 10 8 8 6 7 5 6 9 9 10 9 10 11 10 11 11 13 13 14 15 19
7 7 6 5 5 5 5 4 3 2 2 1 1 1 3 3 6 3 5 7 14 19 11 13 11 9 10 11 10 9 10 11 13 15 14 11 10 8 8 12 11 13 14 20 20 20 20
7 7 6 5 5 5 5 4 3 2 2 2 2 2 5 4 3 3 5 12 20 15 14 10 10 10 13 11 11 10 11 13 10 12 13 16 16 10 8 11 14 14 16 20 22 21 19
7 7 6 5 5 5 5 4 3 2 2 2 3 7 7 5 3 3 9 17 16 15 12 12 11 14 13 11 12 11 12 12 11 10 14 14 14 9 8 10 11 14 16 14 17 18 18
7 6 6 5 5 4 5 4 3 2 2 2 5 8 8 3 3 5 11 14 14 11 11 11 15 13 15 14 14 13 13 10 11 9 9 12 15 10 9 10 11 13 12 17 18 20 20
7 6 6 5 4 5 4 4 3 2 2 2 7 10 7 4 4 8 14 13 12 10 10 12 13 14 13 14 12 14 13 11 9 9 8 10 12 12 10 13 15 15 15 16 15 17 19
7 7 5 5 4 5 4 4 3 3 2 4 7 13 6 6 10 10 13 11 9 10 9 12 10 11 13 12 13 13 14 11 8 8 11 10 12 14 13 12 10 13 14 15 18 19 17
7 7 5 4 4 4 4 3 3 3 2 5 8 9 6 6 13 12 10 10 9 10 10 11 13 10 10 13 14 12 12 8 8 9 10 10 14 17 14 12 12 14 13 13 14 13 17
7 6 5 5 4 4 4 3 3 3 2 7 10 13 10 9 8 11 12 11 11 8 9 9 10 9 11 12 11 13 12 9 8 8 6 8 13 16 18 15 14 15 13 12 13 16 16
7 6 6 5 5 4 4 3 3 3 2 7 10 12 9 12 11 11 10 11 12 12 9 8 10 11 12 14 13 13 12 10 8 6 8 11 15 14 14 12 12 13 13 11 13 13 14
7 7 6 6 5 5 4 3 3 3 2 8 9 10 10 10 10 10 10 11 12 11 10 11 12 10 10 13 12 14 12 11 11 9 11 10 15 14 15 12 12 14 12 11 11 12 13
7 7 7 6 6 5 4 4 3 3 3 6 6 6 8 10 11 11 11 11 11 9 9 8 9 10 11 10 9 8 8 9 10 11 12 12 14 15 17 14 13 16 14 13 12 12 12
7 7 7 6 6 5 4 4 3 3 2 4 5 6 9 12 11 11 10 10 10 10 11 9 9 10 8 6 7 7 8 9 9 10 9 12 14 15 17 15 20 13 10 10 12 11 11
8 7 7 6 6 5 5 4 3 3 2 3 4 6 7 11 11 11 11 11 9 9 10 9 8 6 6 7 11 14 13 12 11 10 10 10 13 16 18 18 15 12 11 12 13 14 10
8 8 7 7 6 5 5 4 4 3 1 3 6 5 7 9 11 9 10 11 11 11 10 9 7 5 7 10 12 17 18 15 15 13 9 10 11 14 17 19 20 13 9 8 9 15 9
8 8 7 6 6 5 5 4 3 3 1 2 4 6 6 8 9 9 11 11 9 9 11 10 9 9 7 12 14 16 16 12 17 17 16 14 14 16 16 17 15 10 9 8 15 14 8
8 8 7 6 6 5 4 4 3 3 1 2 4 5 5 7 8 8 8 10 10 10 12 10 10 10 10 13 14 14 15 13 14 13 14 15 16 16 15 18 19 8 9 13 11 9 8
8 7 7 6 6 5 4 4 3 2 1 1 6 5 4 6 7 7 6 5 6 6 9 10 10 10 9 11 11 11 14 12 13 16 11 15 13 14 13 14 11 10 10 9 9 9 10

GFSGBSN_con_lsi_141.txt.gz
Lid_Strength_Index
5 5 6 6 6 6 6 6 6 5 5 5 4 4 4 5 5 5 5 5 4 4 4 4 4 4 5 10 10 5 2 4 6 3 4 6 10 10 12 10 9 9 9 8 7 7 7
5 5 6 6 6 6 6 6 5 5 4 4 4 5 5 5 4 4 4 4 3 3 3 3 4 3 7 12 5 5 5 6 6 5 5 6 9 9 10 10 10 8 8 8 7 7 7
5 5 6 6 6 6 6 5 5 5 5 4 4 5 5 5 4 3 3 2 1 2 2 2 2 4 8 8 3 4 5 6 5 4 6 5 7 10 10 12 9 9 10 9 9 7 8
6 6 6 6 6 6 5 6 6 5 4 4 5 5 5 4 3 1 0 -0 -0 -0 -0 -0 -0 3 8 3 1 3 3 5 5 5 6 5 6 9 10 10 10 11 11 13 10 9 8
6 6 6 6 6 6 6 6 5 5 5 5 5 4 3 2 1 0 0 -0 -0 -0 -0 0 2 4 7 1 3 3 3 6 6 6 6 6 7 9 10 12 13 12 15 14 12 9 9
6 6 6 6 6 5 6 5 5 5 5 5 4 3 2 0 0 0 0 0 1 2 2 2 3 7 5 6 3 2 2 4 7 7 8 8 8 11 12 13 17 16 15 14 13 11 10
6 6 6 6 6 5 5 5 5 4 4 4 4 2 0 0 0 0 1 3 6 6 4 6 6 6 5 3 2 3 3 4 4 7 11 9 12 15 14 13 12 13 14 14 12 10 11
6 7 6 6 6 5 5 5 5 4 4 4 3 1 1 1 1 1 2 6 7 6 9 5 4 4 3 2 6 4 2 7 7 10 8 10 13 11 12 12 13 13 13 13 11 10 9
7 7 6 6 6 5 5 5 4 4 4 3 2 1 1 1 1 3 5 6 4 4 9 7 5 5 4 3 6 6 3 5 8 9 9 11 10 10 12 13 14 13 13 12 12 11 9
7 7 6 6 5 5 5 4 4 4 4 3 2 1 1 1 3 5 7 4 5 5 13 11 8 6 5 4 8 3 3 5 8 10 9 9 8 10 12 14 13 14 11 11 11 12 14
7 7 6 6 5 5 4 4 4 4 4 3 2 1 2 2 5 6 6 5 5 7 19 10 8 3 4 7 7 6 2 5 9 9 8 10 10 10 12 13 11 13 10 10 10 11 10
7 7 7 6 5 5 5 4 4 4 4 3 2 2 2 4 4 5 4 5 7 15 20 12 8 9 9 8 8 6 6 4 5 8 8 8 6 8 10 10 10 10 11 11 10 11 15
7 7 7 6 5 5 5 5 4 4 4 3 2 2 3 3 5 3 5 8 15 18 12 13 11 10 10 11 10 10 10 11 11 15 13 10 9 7 8 11 10 10 12 15 16 15 16
7 7 7 6 5 5 5 4 4 4 4 3 2 3 4 3 2 3 6 12 18 15 14 10 11 10 13 11 11 11 11 13 9 10 11 14 17 9 8 10 13 12 11 14 18 17 15
7 7 7 6 5 5 5 4 4 4 4 3 3 4 4 3 3 4 9 15 15 14 12 12 11 14 14 12 12 12 12 12 9 10 11 15 14 8 8 9 9 12 13 10 13 13 14
7 7 7 5 5 4 5 4 4 4 4 3 5 6 5 2 2 5 11 13 13 13 12 11 15 13 15 13 12 13 12 9 9 8 7 10 15 9 8 8 9 10 10 13 12 17 17
7 7 7 6 5 5 5 4 4 4 4 3 4 6 4 3 3 7 13 13 11 9 9 12 13 13 13 13 12 13 11 9 9 9 8 9 11 11 9 11 12 11 12 12 11 13 15
7 7 7 6 5 5 5 4 4 4 4 4 5 8 4 4 9 9 12 10 9 9 8 12 11 11 12 12 12 13 13 11 8 8 11 8 10 13 11 9 8 10 11 11 13 15 13
7 8 7 6 6 6 4 4 4 4 4 6 8 7 3 4 12 12 10 10 9 9 10 10 12 10 9 12 14 11 11 8 7 8 9 8 12 15 13 11 9 11 11 10 10 11 14
7 8 7 7 6 6 5 5 4 4 4 5 7 9 6 6 7 11 11 11 11 8 9 8 10 9 10 12 11 13 12 8 7 8 6 7 10 12 14 13 11 12 12 10 10 12 12
8 8 7 7 7 6 5 5 4 4 4 5 6 9 7 11 11 10 9 10 12 12 9 8 10 11 11 13 13 13 11 10 8 7 8 8 12 11 10 11 11 11 11 10 11 10 11
7 7 7 7 7 6 5 5 4 4 4 6 8 8 7 9 9 10 10 11 12 12 10 11 11 10 10 12 12 13 11 11 11 8 9 9 13 11 11 10 10 11 10 9 9 9 10
7 7 7 7 7 6 5 5 4 4 4 7 5 5 7 8 10 10 11 11 11 10 10 9 9 10 11 10 8 8 8 8 9 9 10 11 12 13 14 10 10 12 11 9 9 8 9
7 7 7 7 7 6 5 4 4 4 3 4 5 6 7 10 10 11 10 9 10 10 11 9 8 10 8 5 6 7 8 8 8 9 8 11 12 12 15 11 16 12 9 9 9 10 9
7 7 8 7 6 6 5 4 4 4 3 4 4 5 6 10 9 9 9 9 8 8 10 9 8 6 6 7 11 12 12 11 10 9 9 8 11 14 16 16 14 12 10 10 10 12 8
8 8 8 7 6 6 5 4 4 4 3 3 4 4 5 8 9 9 9 8 10 10 10 9 7 5 6 9 11 15 17 14 14 11 8 8 9 13 14 17 18 12 9 7 8 14 8
8 8 8 7 7 6 5 4 4 4 3 3 4 3 5 7 6 7 9 9 7 9 10 9 9 9 6 11 14 15 15 11 15 15 14 13 13 15 15 16 13 9 8 7 13 12 7
8 8 8 8 7 6 5 4 4 3 2 3 4 3 4 7 7 6 6 8 7 8 11 9 10 9 10 13 13 13 14 13 13 12 13 14 15 15 14 16 17 8 8 11 9 7 6
8 8 8 8 7 6 5 4 4 3 2 2 5 3 3 6 6 4 5 5 5 5 8 8 9 9 8 11 11 11 12 11 12 15 9 14 11 14 12 13 8 8 8 6 6 6 6

GFSGBSN_con_lsi_147.txt.gz
Lid_Strength_Index
5 5 5 5 5 5 5 5 5 5 5 5 5 4 4 4 4 3 3 3 1 1 1 1 1 1 2 5 4 2 -1 -1 1 3 5 5 6 6 8 8 7 8 7 6 5 5 5
5 5 5 5 5 5 5 5 5 5 5 5 4 4 4 4 3 3 2 1 1 1 1 1 1 1 3 7 1 0 2 2 2 3 4 3 5 5 7 7 7 6 6 6 5 5 5
5 5 5 5 5 5 5 5 5 5 4 4 4 4 3 3 3 2 1 1 1 1 1 1 1 2 5 5 1 -1 -0 1 2 3 4 3 3 5 6 8 6 6 8 7 6 6 6
5 5 6 5 6 5 5 5 5 5 4 4 4 3 3 3 2 1 1 1 1 1 1 1 1 3 7 1 -0 1 0 0 0 1 2 3 3 4 6 6 7 9 8 10 7 6 6
5 6 6 6 6 5 5 5 5 5 5 4 3 3 3 3 2 1 1 1 1 1 1 1 3 4 7 0 2 1 -0 2 2 1 2 3 3 5 6 9 10 10 11 10 9 6 6
5 6 6 6 6 6 5 5 5 5 4 3 3 3 3 2 1 1 1 1 1 2 2 3 4 7 4 5 3 1 -0 1 3 2 4 4 6 8 8 10 14 12 12 10 9 7 7
6 6 6 6 6 6 5 5 5 5 4 3 3 3 3 2 1 1 2 1 4 6 5 6 6 6 5 3 1 2 1 3 2 4 8 6 10 11 9 9 9 9 10 10 8 6 8
6 6 6 6 6 6 5 5 5 4 4 3 3 3 2 1 1 1 2 5 5 5 8 5 5 4 3 3 5 3 1 5 5 8 6 9 12 7 7 8 9 9 9 10 8 6 8
6 6 6 6 6 5 5 5 5 4 4 3 3 3 2 1 1 2 3 4 3 4 9 7 5 6 5 4 5 5 3 5 6 7 7 10 8 6 7 8 10 10 9 10 8 8 8
6 6 6 6 6 5 5 5 4 4 3 3 3 3 2 1 3 1 4 2 3 4 12 9 7 5 4 4 6 3 2 4 6 9 7 7 6 7 8 9 9 11 8 8 8 10 12
6 6 6 6 5 5 5 5 4 4 3 3 3 3 2 2 1 4 2 2 4 5 19 9 6 2 4 6 6 6 2 4 7 8 7 8 9 8 10 9 7 9 8 8 8 10 9
6 6 6 5 5 5 5 5 5 4 3 3 3 3 2 0 1 2 1 4 6 13 19 10 6 8 8 6 7 5 5 3 4 7 7 7 6 7 7 6 7 6 7 8 8 9 12
6 6 6 5 5 5 5 5 5 4 4 3 3 3 1 -0 3 1 3 7 13 17 9 11 10 8 8 11 10 9 8 8 9 14 12 9 8 7 6 8 7 7 8 12 13 13 13
6 6 6 6 5 5 5 5 5 4 4 4 4 3 1 -0 -0 1 5 10 17 13 13 8 9 8 11 10 11 10 10 9 7 8 11 11 16 11 6 7 9 8 9 12 15 15 12
6 6 6 6 6 5 5 5 5 4 4 4 4 -0 -0 -1 -1 1 7 14 15 13 11 12 10 13 13 11 11 12 11 9 7 7 14 11 12 9 7 6 7 8 10 7 10 10 12
6 6 6 5 6 5 5 5 5 4 4 4 3 1 2 -1 -1 2 9 13 12 11 11 12 14 11 14 11 13 12 12 8 8 6 7 8 13 9 8 6 6 7 7 10 10 14 15
6 6 6 5 6 6 5 5 5 4 4 4 2 4 1 -1 -0 5 12 11 10 8 8 13 12 13 11 11 11 12 11 8 7 7 6 8 10 12 8 9 9 9 10 9 9 10 13
6 6 6 6 5 5 5 5 5 5 5 3 3 5 0 -1 6 7 11 9 8 9 7 11 12 11 12 10 10 9 10 9 6 6 9 9 12 14 11 7 7 7 9 8 11 11 10
6 6 6 6 6 5 5 5 5 5 5 5 5 4 0 1 11 11 8 8 8 9 9 10 11 10 9 11 13 9 8 6 5 6 9 9 12 15 13 9 7 8 8 8 8 8 11
6 6 6 6 6 6 5 5 5 5 5 4 5 8 4 3 4 8 10 9 10 7 8 9 9 9 10 11 9 11 10 7 6 7 7 8 11 12 15 11 8 9 8 8 8 11 10
6 6 6 6 6 6 4 5 5 5 5 3 5 7 5 8 7 8 7 8 11 12 8 8 10 10 11 14 13 11 9 8 7 8 8 10 13 9 9 8 8 9 9 8 9 8 10
5 6 6 6 6 6 5 5 5 5 5 3 7 8 6 7 6 7 8 9 11 10 10 11 11 10 10 12 12 11 8 9 10 9 10 8 10 9 10 8 8 9 8 8 8 8 8
5 6 6 6 6 6 5 5 5 5 5 5 4 4 6 6 6 8 9 8 9 8 9 8 9 10 11 10 8 7 6 7 7 9 10 11 12 13 15 9 9 11 9 8 8 8 7
5 6 6 6 6 6 5 5 5 5 5 5 5 4 6 8 6 7 7 6 8 8 10 8 8 9 7 4 5 6 6 8 7 7 8 12 12 10 12 10 15 8 6 6 8 8 6
6 6 6 6 6 6 6 5 5 5 4 5 4 5 6 8 6 6 6 6 6 6 8 8 7 6 4 7 9 11 12 12 10 8 8 8 10 11 14 13 10 8 7 7 8 8 6
6 6 7 6 6 6 6 5 5 5 4 4 3 3 5 7 6 5 6 6 7 8 7 6 5 3 4 8 11 15 17 14 13 10 7 7 8 10 11 16 17 9 6 5 5 9 5
7 6 7 6 6 6 6 6 5 5 4 4 3 1 5 8 4 4 6 7 5 6 8 6 6 6 5 11 13 14 15 11 15 13 12 11 10 11 12 15 13 8 6 6 11 9 5
6 7 7 6 6 6 6 5 5 5 4 4 4 1 4 7 4 3 3 5 5 5 9 6 8 7 9 12 13 13 13 10 12 12 12 13 12 12 11 15 17 7 7 9 8 5 5
6 7 7 6 6 6 5 6 5 5 5 4 4 2 2 6 4 1 1 1 2 2 5 5 7 7 8 11 11 11 12 10 11 14 9 14 11 13 13 13 8 6 6 5 5 5 5